Time,TemperatureF,DewpointF,PressureIn,WindDirection,WindDirectionDegrees,WindSpeedMPH,WindSpeedGustMPH,Humidity,HourlyPrecipIn,Conditions,Clouds,dailyrainin,SolarRadiationWatts/m^2,SoftwareType,DateUTC
2013-06-16 00:01:00,52.0,35.0,-100.00,NW,306,4.0,5.0,52,-99.99,,,0.00,0.120000,,2013-06-16 06:01:00,
2013-06-16 00:11:00,52.0,35.0,-100.00,NW,306,4.0,5.0,52,-99.99,,,0.00,0.120000,,2013-06-16 06:11:00,
2013-06-16 00:43:00,47.0,37.0,-100.00,SW,220,2.0,4.0,69,-99.99,,,0.00,0.120000,,2013-06-16 06:43:00,
2013-06-16 00:52:00,47.0,37.0,-100.00,SW,220,2.0,4.0,69,-99.99,,,0.00,0.120000,,2013-06-16 06:52:00,
2013-06-16 01:01:00,47.0,37.0,-100.00,SW,220,2.0,4.0,69,-99.99,,,0.00,0.120000,,2013-06-16 07:01:00,
2013-06-16 01:11:00,47.0,37.0,-100.00,SW,220,2.0,4.0,69,-99.99,,,0.00,0.120000,,2013-06-16 07:11:00,
2013-06-16 01:43:00,44.0,37.0,-100.00,SW,235,4.0,6.0,76,-99.99,,,0.00,0.120000,,2013-06-16 07:43:00,
2013-06-16 01:53:00,44.0,37.0,-100.00,SW,235,4.0,6.0,76,-99.99,,,0.00,0.120000,,2013-06-16 07:53:00,
2013-06-16 02:02:00,44.0,37.0,-100.00,SW,235,4.0,6.0,76,-99.99,,,0.00,0.120000,,2013-06-16 08:02:00,
2013-06-16 02:11:00,44.0,37.0,-100.00,SW,235,4.0,6.0,76,-99.99,,,0.00,0.120000,,2013-06-16 08:11:00,
2013-06-16 02:43:00,41.0,36.0,-100.00,SSW,196,4.0,5.0,82,-99.99,,,0.00,0.120000,,2013-06-16 08:43:00,
2013-06-16 02:54:00,41.0,36.0,-100.00,SSW,196,4.0,5.0,82,-99.99,,,0.00,0.120000,,2013-06-16 08:54:00,
2013-06-16 03:01:00,41.0,36.0,-100.00,SSW,196,4.0,5.0,82,-99.99,,,0.00,0.120000,,2013-06-16 09:01:00,
2013-06-16 03:11:00,41.0,36.0,-100.00,SSW,196,4.0,5.0,82,-99.99,,,0.00,0.120000,,2013-06-16 09:11:00,
2013-06-16 03:42:00,41.0,36.0,-100.00,SW,214,1.0,4.0,81,-99.99,,,0.00,0.120000,,2013-06-16 09:42:00,
2013-06-16 03:52:00,41.0,36.0,-100.00,SW,214,1.0,4.0,81,-99.99,,,0.00,0.120000,,2013-06-16 09:52:00,
2013-06-16 04:01:00,41.0,36.0,-100.00,SW,214,1.0,4.0,81,-99.99,,,0.00,0.120000,,2013-06-16 10:01:00,
2013-06-16 04:12:00,41.0,36.0,-100.00,SW,214,1.0,4.0,81,-99.99,,,0.00,0.120000,,2013-06-16 10:12:00,
2013-06-16 04:42:00,39.0,36.0,-100.00,West,278,2.0,3.0,88,-99.99,,,0.00,0.120000,,2013-06-16 10:42:00,
2013-06-16 04:53:00,39.0,36.0,-100.00,West,278,2.0,3.0,88,-99.99,,,0.00,0.120000,,2013-06-16 10:53:00,
2013-06-16 05:02:00,39.0,36.0,-100.00,West,278,2.0,3.0,88,-99.99,,,0.00,0.120000,,2013-06-16 11:02:00,
2013-06-16 05:11:00,39.0,36.0,-100.00,West,278,2.0,3.0,88,-99.99,,,0.00,0.120000,,2013-06-16 11:11:00,
2013-06-16 05:43:00,38.0,35.0,-100.00,SSW,202,2.0,3.0,88,-99.99,,,0.00,0.230000,,2013-06-16 11:43:00,
2013-06-16 05:53:00,38.0,35.0,-100.00,SSW,202,2.0,3.0,88,-99.99,,,0.00,0.230000,,2013-06-16 11:53:00,
2013-06-16 06:01:00,38.0,35.0,-100.00,SSW,202,2.0,3.0,88,-99.99,,,0.00,0.230000,,2013-06-16 12:01:00,
2013-06-16 06:11:00,38.0,35.0,-100.00,SSW,202,2.0,3.0,88,-99.99,,,0.00,0.230000,,2013-06-16 12:11:00,
2013-06-16 06:42:00,38.0,34.0,-100.00,SSW,193,1.0,2.0,85,-99.99,,,0.00,37.310001,,2013-06-16 12:42:00,
2013-06-16 06:53:00,38.0,34.0,-100.00,SSW,193,1.0,2.0,85,-99.99,,,0.00,37.310001,,2013-06-16 12:53:00,
2013-06-16 07:01:00,38.0,34.0,-100.00,SSW,193,1.0,2.0,85,-99.99,,,0.00,37.310001,,2013-06-16 13:01:00,
2013-06-16 07:11:00,38.0,34.0,-100.00,SSW,193,1.0,2.0,85,-99.99,,,0.00,37.310001,,2013-06-16 13:11:00,
2013-06-16 07:42:00,43.0,38.0,-100.00,SSW,213,1.0,2.0,82,-99.99,,,0.00,182.000000,,2013-06-16 13:42:00,
2013-06-16 07:53:00,43.0,38.0,-100.00,SSW,213,1.0,2.0,82,-99.99,,,0.00,182.000000,,2013-06-16 13:53:00,
2013-06-16 08:01:00,43.0,38.0,-100.00,SSW,213,1.0,2.0,82,-99.99,,,0.00,182.000000,,2013-06-16 14:01:00,
2013-06-16 08:12:00,43.0,38.0,-100.00,SSW,213,1.0,2.0,82,-99.99,,,0.00,182.000000,,2013-06-16 14:12:00,
2013-06-16 08:43:00,49.0,38.0,-100.00,SSE,157,3.0,5.0,65,-99.99,,,0.00,202.690002,,2013-06-16 14:43:00,
2013-06-16 08:52:00,49.0,38.0,-100.00,SSE,157,3.0,5.0,65,-99.99,,,0.00,202.690002,,2013-06-16 14:52:00,
2013-06-16 09:02:00,49.0,38.0,-100.00,SSE,157,3.0,5.0,65,-99.99,,,0.00,202.690002,,2013-06-16 15:02:00,
2013-06-16 09:12:00,49.0,38.0,-100.00,SSE,157,3.0,5.0,65,-99.99,,,0.00,202.690002,,2013-06-16 15:12:00,
2013-06-16 09:43:00,55.0,37.0,-100.00,ENE,61,2.0,6.0,49,-99.99,,,-99.99,436.869995,,2013-06-16 15:43:00,
2013-06-16 09:52:00,55.0,37.0,-100.00,ENE,61,2.0,6.0,49,-99.99,,,-99.99,436.869995,,2013-06-16 15:52:00,
2013-06-16 10:01:00,55.0,37.0,-100.00,ENE,61,2.0,6.0,49,-99.99,,,-99.99,436.869995,,2013-06-16 16:01:00,
2013-06-16 10:11:00,55.0,37.0,-100.00,ENE,61,2.0,6.0,49,-99.99,,,-99.99,436.869995,,2013-06-16 16:11:00,
2013-06-16 10:43:00,60.0,38.0,-100.00,NNE,13,3.0,8.0,43,-99.99,,,0.00,712.200012,,2013-06-16 16:43:00,
2013-06-16 10:53:00,60.0,38.0,-100.00,NNE,13,3.0,8.0,43,-99.99,,,0.00,712.200012,,2013-06-16 16:53:00,
2013-06-16 11:01:00,60.0,38.0,-100.00,NNE,13,3.0,8.0,43,-99.99,,,0.00,712.200012,,2013-06-16 17:01:00,
2013-06-16 11:11:00,60.0,38.0,-100.00,NNE,13,3.0,8.0,43,-99.99,,,0.00,712.200012,,2013-06-16 17:11:00,
2013-06-16 11:43:00,65.0,36.0,-100.00,NNE,25,5.0,8.0,34,-99.99,,,0.00,864.679993,,2013-06-16 17:43:00,
2013-06-16 11:53:00,65.0,36.0,-100.00,NNE,25,5.0,8.0,34,-99.99,,,0.00,864.679993,,2013-06-16 17:53:00,
2013-06-16 12:02:00,65.0,36.0,-100.00,NNE,25,5.0,8.0,34,-99.99,,,0.00,864.679993,,2013-06-16 18:02:00,
2013-06-16 12:12:00,65.0,36.0,-100.00,NNE,25,5.0,8.0,34,-99.99,,,0.00,864.679993,,2013-06-16 18:12:00,
2013-06-16 12:43:00,69.0,36.0,-100.00,NNE,20,7.0,12.0,29,-99.99,,,0.00,1006.469971,,2013-06-16 18:43:00,
2013-06-16 12:52:00,69.0,36.0,-100.00,NNE,20,7.0,12.0,29,-99.99,,,0.00,1006.469971,,2013-06-16 18:52:00,
2013-06-16 13:01:00,69.0,36.0,-100.00,NNE,20,7.0,12.0,29,-99.99,,,0.00,1006.469971,,2013-06-16 19:01:00,
2013-06-16 13:11:00,69.0,36.0,-100.00,NNE,20,7.0,12.0,29,-99.99,,,0.00,1006.469971,,2013-06-16 19:11:00,
2013-06-16 13:43:00,72.0,35.0,-100.00,North,6,11.0,17.0,24,-99.99,,,-99.99,986.710022,,2013-06-16 19:43:00,
2013-06-16 13:53:00,72.0,35.0,-100.00,North,6,11.0,17.0,24,-99.99,,,-99.99,986.710022,,2013-06-16 19:53:00,
2013-06-16 14:02:00,72.0,35.0,-100.00,North,6,11.0,17.0,24,-99.99,,,-99.99,986.710022,,2013-06-16 20:02:00,
2013-06-16 14:11:00,72.0,35.0,-100.00,North,6,11.0,17.0,24,-99.99,,,-99.99,986.710022,,2013-06-16 20:11:00,
2013-06-16 14:42:00,74.0,32.0,-100.00,NNE,18,11.0,17.0,21,-99.99,,,-99.99,959.979980,,2013-06-16 20:42:00,
2013-06-16 14:53:00,74.0,32.0,-100.00,NNE,18,11.0,17.0,21,-99.99,,,-99.99,959.979980,,2013-06-16 20:53:00,
2013-06-16 15:01:00,74.0,32.0,-100.00,NNE,18,11.0,17.0,21,-99.99,,,-99.99,959.979980,,2013-06-16 21:01:00,
2013-06-16 15:11:00,74.0,32.0,-100.00,NNE,18,11.0,17.0,21,-99.99,,,-99.99,959.979980,,2013-06-16 21:11:00,
2013-06-16 15:42:00,75.0,34.0,-100.00,NNE,23,11.0,19.0,22,-99.99,,,0.00,987.869995,,2013-06-16 21:42:00,
2013-06-16 15:53:00,75.0,34.0,-100.00,NNE,23,11.0,19.0,22,-99.99,,,0.00,987.869995,,2013-06-16 21:53:00,
2013-06-16 16:01:00,75.0,34.0,-100.00,NNE,23,11.0,19.0,22,-99.99,,,0.00,987.869995,,2013-06-16 22:01:00,
2013-06-16 16:12:00,75.0,34.0,-100.00,NNE,23,11.0,19.0,22,-99.99,,,0.00,987.869995,,2013-06-16 22:12:00,
2013-06-16 16:42:00,76.0,34.0,-100.00,NNE,19,11.0,17.0,21,-99.99,,,-99.99,837.950012,,2013-06-16 22:42:00,
2013-06-16 16:52:00,76.0,34.0,-100.00,NNE,19,11.0,17.0,21,-99.99,,,-99.99,837.950012,,2013-06-16 22:52:00,
2013-06-16 17:01:00,76.0,34.0,-100.00,NNE,19,11.0,17.0,21,-99.99,,,-99.99,837.950012,,2013-06-16 23:01:00,
2013-06-16 17:11:00,76.0,34.0,-100.00,NNE,19,11.0,17.0,21,-99.99,,,-99.99,837.950012,,2013-06-16 23:11:00,
2013-06-16 17:42:00,77.0,32.0,-100.00,North,11,13.0,20.0,19,-99.99,,,0.00,675.349976,,2013-06-16 23:42:00,
2013-06-16 17:52:00,77.0,32.0,-100.00,North,11,13.0,20.0,19,-99.99,,,0.00,675.349976,,2013-06-16 23:52:00,
2013-06-16 18:01:00,77.0,32.0,-100.00,North,11,13.0,20.0,19,-99.99,,,0.00,675.349976,,2013-06-17 00:01:00,
2013-06-16 18:11:00,77.0,32.0,-100.00,North,11,13.0,20.0,19,-99.99,,,0.00,675.349976,,2013-06-17 00:11:00,
2013-06-16 19:43:00,75.0,36.0,-100.00,NNE,19,8.0,12.0,23,-99.99,,,0.00,349.709991,,2013-06-17 01:43:00,
2013-06-16 19:53:00,75.0,36.0,-100.00,NNE,19,8.0,12.0,23,-99.99,,,0.00,349.709991,,2013-06-17 01:53:00,
2013-06-16 20:02:00,75.0,36.0,-100.00,NNE,19,8.0,12.0,23,-99.99,,,0.00,349.709991,,2013-06-17 02:02:00,
2013-06-16 20:11:00,75.0,36.0,-100.00,NNE,19,8.0,12.0,23,-99.99,,,0.00,349.709991,,2013-06-17 02:11:00,
2013-06-16 20:43:00,71.0,40.0,-100.00,NNE,25,6.0,9.0,32,-99.99,,,0.00,164.449997,,2013-06-17 02:43:00,
2013-06-16 20:53:00,71.0,40.0,-100.00,NNE,25,6.0,9.0,32,-99.99,,,0.00,164.449997,,2013-06-17 02:53:00,
2013-06-16 21:02:00,71.0,40.0,-100.00,NNE,25,6.0,9.0,32,-99.99,,,0.00,164.449997,,2013-06-17 03:02:00,
2013-06-16 21:12:00,71.0,40.0,-100.00,NNE,25,6.0,9.0,32,-99.99,,,0.00,164.449997,,2013-06-17 03:12:00,
2013-06-16 21:44:00,65.0,46.0,-100.00,North,350,8.0,12.0,50,-99.99,,,0.00,13.480000,,2013-06-17 03:44:00,
2013-06-16 21:54:00,65.0,46.0,-100.00,North,350,8.0,12.0,50,-99.99,,,0.00,13.480000,,2013-06-17 03:54:00,
2013-06-16 22:02:00,65.0,46.0,-100.00,North,350,8.0,12.0,50,-99.99,,,0.00,13.480000,,2013-06-17 04:02:00,
2013-06-16 22:12:00,65.0,46.0,-100.00,North,350,8.0,12.0,50,-99.99,,,0.00,13.480000,,2013-06-17 04:12:00,
2013-06-16 22:42:00,60.0,45.0,-100.00,NNW,337,7.0,13.0,57,-99.99,,,0.00,0.120000,,2013-06-17 04:42:00,
2013-06-16 22:53:00,60.0,45.0,-100.00,NNW,337,7.0,13.0,57,-99.99,,,0.00,0.120000,,2013-06-17 04:53:00,
2013-06-16 23:02:00,60.0,45.0,-100.00,NNW,337,7.0,13.0,57,-99.99,,,0.00,0.120000,,2013-06-17 05:02:00,
2013-06-16 23:11:00,60.0,45.0,-100.00,NNW,337,7.0,13.0,57,-99.99,,,0.00,0.120000,,2013-06-17 05:11:00,
2013-06-16 23:44:00,61.0,44.0,-100.00,NNW,328,11.0,15.0,52,-99.99,,,-99.99,0.120000,,2013-06-17 05:44:00,
2013-06-16 23:53:00,61.0,44.0,-100.00,NNW,328,11.0,15.0,52,-99.99,,,-99.99,0.120000,,2013-06-17 05:53:00,